Location: Falniów
(50.3639°N, 19.9642°E)
Time: 13:40:39
(UTC+00:00)

Cosmos 2082 Rocket - Pass Details

Date: 26 April 2026
Orbit: 831 x 853 km, 71.0° (Epoch: 19 May)

Event Time Altitude Azimuth Distance (km) Brightness Sun altitude
Exits shadow 00:00:22 35° 261° (W) 1,340 3.0 -23.7°
Maximum altitude 00:02:11 47° 308° (NW) 1,120 2.9 -23.6°
Drops below altitude 10° 00:07:43 10° 22° (NNE) 2,493 5.8 -23.2°
Sets 00:10:17 0° 28° (NNE) 3,432 6.8 -23.1°
